Location: ???? ????
(41.4149°N, 22.8816°E)
Time: 13:42:56
(UTC+00:00)

Cosmos 1544 - Pass Details

Date: 14 July 2020
Orbit: 473 x 490 km, 82.5° (Epoch: 03 August)

Event Time Altitude Azimuth Distance (km) Brightness Sun altitude
Exits shadow 01:25:40 12° 161° (SSE) 1,493 5.2 -15.5°
Maximum altitude 01:28:39 39° 93° (E) 722 4.2 -15.2°
Drops below altitude 10° 01:32:01 10° 23° (NNE) 1,647 6.9 -14.7°
Sets 01:34:12 0° 16° (NNE) 2,530 7.9 -14.5°
